EN

Hourly Weather Altlandsberg

Today, 18 January, Monday

Time Temperature Precipitation Wind Pressure Humidity
00:00 -7°C° 0 mm 2 mps 760 mmHg 92%
01:00 -3°C° 0 mm 1 mps 760 mmHg 89%
02:00 -5°C° 0 mm 2 mps 759 mmHg 89%
03:00 -5°C° 0 mm 2 mps 759 mmHg 89%
04:00 -5°C° 0 mm 2 mps 759 mmHg 89%
05:00 -5°C° 0 mm 2 mps 759 mmHg 88%
06:00 -5°C° 0 mm 2 mps 759 mmHg 87%
07:00 -6°C° 0 mm 2 mps 759 mmHg 85%
08:00 -5°C° 0 mm 2 mps 759 mmHg 85%
09:00 -5°C° 0 mm 2 mps 759 mmHg 86%
10:00 -4°C° 0 mm 2 mps 758 mmHg 86%
11:00 -4°C° 0.1 mm 2 mps 758 mmHg 88%
12:00 -3°C° 0.1 mm 2 mps 758 mmHg 89%
13:00 -2°C° 0.1 mm 2 mps 758 mmHg 90%
14:00 -2°C° 0.1 mm 2 mps 758 mmHg 93%
15:00 -1°C° 0.1 mm 2 mps 757 mmHg 95%
16:00 -1°C° 0.1 mm 3 mps 757 mmHg 97%
17:00 0°C° 0.5 mm 3 mps 757 mmHg 97%
18:00 0°C° 0.5 mm 3 mps 756 mmHg 97%
19:00 -1°C° 0.5 mm 4 mps 756 mmHg 97%
20:00 0°C° 0.3 mm 4 mps 756 mmHg 97%
21:00 0°C° 0.3 mm 5 mps 755 mmHg 97%
22:00 0°C° 0.3 mm 5 mps 755 mmHg 97%
23:00 0°C° 0.3 mm 5 mps 755 mmHg 97%

Tomorrow, 19 January, Tuesday

Time Temperature Precipitation Wind Pressure Humidity
00:00 0°C° 0.3 mm 5 mps 755 mmHg 97%
01:00 0°C° 0.3 mm 4 mps 755 mmHg 97%
02:00 0°C° 0.1 mm 5 mps 754 mmHg 96%
03:00 0°C° 0.1 mm 5 mps 754 mmHg 96%
04:00 0°C° 0.1 mm 5 mps 754 mmHg 95%
05:00 0°C° 0 mm 4 mps 753 mmHg 95%
06:00 0°C° 0 mm 4 mps 753 mmHg 95%
07:00 0°C° 0 mm 4 mps 753 mmHg 94%
08:00 0°C° 0.1 mm 4 mps 752 mmHg 95%
09:00 0°C° 0.1 mm 5 mps 752 mmHg 96%
10:00 0°C° 0.1 mm 5 mps 751 mmHg 96%
11:00 -1°C° 0.4 mm 5 mps 751 mmHg 96%
12:00 -2°C° 0.4 mm 6 mps 750 mmHg 96%
13:00 -2°C° 0.4 mm 6 mps 749 mmHg 96%
14:00 -1°C° 0.4 mm 5 mps 748 mmHg 96%
15:00 0°C° 0.4 mm 5 mps 747 mmHg 96%
16:00 0°C° 0.4 mm 5 mps 746 mmHg 96%
17:00 +1°C° 0.9 mm 5 mps 746 mmHg 96%
18:00 +1°C° 0.9 mm 5 mps 746 mmHg 96%
19:00 +2°C° 0.9 mm 5 mps 745 mmHg 95%
20:00 +3°C° 0.8 mm 6 mps 745 mmHg 94%
21:00 +4°C° 0.8 mm 6 mps 745 mmHg 92%
22:00 +5°C° 0.8 mm 7 mps 745 mmHg 90%
23:00 +5°C° 0.1 mm 7 mps 746 mmHg 89%

Day after tomorrow, 20 January, Wednesday

Time Temperature Precipitation Wind Pressure Humidity
00:00 +4°C° 0.1 mm 6 mps 746 mmHg 87%
01:00 +4°C° 0.1 mm 6 mps 746 mmHg 86%
02:00 +4°C° 0 mm 6 mps 746 mmHg 85%
03:00 +3°C° 0 mm 6 mps 746 mmHg 85%
04:00 +3°C° 0 mm 6 mps 746 mmHg 85%
05:00 +2°C° 0 mm 6 mps 746 mmHg 84%
06:00 +2°C° 0 mm 6 mps 745 mmHg 83%
07:00 +2°C° 0 mm 6 mps 745 mmHg 82%
08:00 +2°C° 0 mm 6 mps 745 mmHg 80%
09:00 +2°C° 0 mm 6 mps 745 mmHg 78%
10:00 +2°C° 0 mm 6 mps 745 mmHg 76%
11:00 +2°C° 0.1 mm 6 mps 745 mmHg 77%
12:00 +3°C° 0.1 mm 6 mps 745 mmHg 78%
13:00 +3°C° 0.1 mm 6 mps 745 mmHg 79%
14:00 +3°C° 0 mm 6 mps 744 mmHg 76%
15:00 +5°C° 0 mm 5 mps 744 mmHg 73%
16:00 +5°C° 0 mm 5 mps 744 mmHg 70%
17:00 +3°C° 0 mm 5 mps 744 mmHg 72%
18:00 +3°C° 0 mm 5 mps 745 mmHg 74%
19:00 +3°C° 0 mm 5 mps 745 mmHg 77%
20:00 +3°C° 0 mm 5 mps 745 mmHg 76%
21:00 +3°C° 0 mm 5 mps 745 mmHg 76%
22:00 +3°C° 0 mm 5 mps 745 mmHg 76%
23:00 +3°C° 0 mm 5 mps 744 mmHg 75%

21 January, Thursday

Time Temperature Precipitation Wind Pressure Humidity
00:00 +3°C° 0 mm 5 mps 744 mmHg 75%
01:00 +2°C° 0 mm 5 mps 744 mmHg 74%
02:00 +2°C° 0 mm 5 mps 744 mmHg 75%
03:00 +2°C° 0 mm 5 mps 744 mmHg 75%
04:00 +2°C° 0 mm 5 mps 743 mmHg 76%
05:00 +2°C° 0 mm 5 mps 743 mmHg 74%
06:00 +2°C° 0 mm 5 mps 743 mmHg 73%
07:00 +2°C° 0 mm 5 mps 743 mmHg 71%
08:00 +2°C° 0 mm 6 mps 743 mmHg 69%
09:00 +2°C° 0 mm 6 mps 743 mmHg 66%
10:00 +2°C° 0 mm 6 mps 743 mmHg 63%
11:00 +3°C° 0 mm 7 mps 742 mmHg 63%
12:00 +4°C° 0 mm 7 mps 742 mmHg 62%
13:00 +5°C° 0 mm 7 mps 742 mmHg 61%
14:00 +5°C° 0 mm 6 mps 741 mmHg 64%
15:00 +6°C° 0 mm 5 mps 741 mmHg 68%
16:00 +6°C° 0 mm 5 mps 741 mmHg 71%
17:00 +5°C° 0 mm 5 mps 741 mmHg 74%
18:00 +5°C° 0 mm 5 mps 741 mmHg 76%
19:00 +3°C° 0 mm 5 mps 741 mmHg 79%
20:00 +3°C° 0 mm 5 mps 740 mmHg 80%
21:00 +5°C° 0 mm 5 mps 740 mmHg 81%
22:00 +5°C° 0 mm 5 mps 740 mmHg 82%
23:00 +5°C° 0 mm 5 mps 740 mmHg 83%

22 January, Friday

Time Temperature Precipitation Wind Pressure Humidity
00:00 +5°C° 0 mm 5 mps 739 mmHg 83%
01:00 +5°C° 0 mm 5 mps 739 mmHg 84%
02:00 +6°C° 0 mm 5 mps 739 mmHg 83%
03:00 +5°C° 0 mm 6 mps 738 mmHg 83%
04:00 +5°C° 0 mm 6 mps 738 mmHg 82%
05:00 +5°C° 0 mm 6 mps 737 mmHg 80%
06:00 +5°C° 0 mm 7 mps 737 mmHg 77%
07:00 +4°C° 0 mm 7 mps 736 mmHg 75%
08:00 +4°C° 0 mm 7 mps 736 mmHg 75%
09:00 +5°C° 0 mm 7 mps 736 mmHg 74%
10:00 +5°C° 0 mm 7 mps 736 mmHg 74%
11:00 +5°C° 0 mm 6 mps 737 mmHg 75%
12:00 +4°C° 0 mm 6 mps 738 mmHg 76%
13:00 +3°C° 0 mm 5 mps 738 mmHg 77%
14:00 +3°C° 0 mm 5 mps 739 mmHg 73%
15:00 +3°C° 0 mm 5 mps 740 mmHg 70%
16:00 +4°C° 0 mm 4 mps 740 mmHg 67%
17:00 +4°C° 0 mm 4 mps 741 mmHg 69%
18:00 +4°C° 0 mm 4 mps 741 mmHg 71%
19:00 +3°C° 0 mm 3 mps 742 mmHg 73%
20:00 +3°C° 0 mm 3 mps 742 mmHg 74%
21:00 +3°C° 0 mm 3 mps 743 mmHg 75%
22:00 +3°C° 0 mm 3 mps 743 mmHg 76%
23:00 +2°C° 0 mm 3 mps 743 mmHg 79%

23 January, Saturday

Time Temperature Precipitation Wind Pressure Humidity
00:00 +2°C° 0 mm 3 mps 743 mmHg 81%
01:00 +1°C° 0 mm 3 mps 743 mmHg 84%
02:00 +1°C° 0 mm 3 mps 743 mmHg 86%
03:00 +1°C° 0 mm 3 mps 743 mmHg 87%
04:00 0°C° 0 mm 3 mps 743 mmHg 89%
05:00 0°C° 0 mm 3 mps 743 mmHg 89%
06:00 0°C° 0 mm 3 mps 743 mmHg 90%
07:00 0°C° 0 mm 3 mps 743 mmHg 91%
08:00 0°C° 0 mm 3 mps 744 mmHg 89%
09:00 +1°C° 0 mm 3 mps 744 mmHg 87%
10:00 +1°C° 0 mm 4 mps 744 mmHg 85%
11:00 +2°C° 0 mm 3 mps 744 mmHg 80%
12:00 +3°C° 0 mm 3 mps 743 mmHg 74%
13:00 +4°C° 0 mm 3 mps 743 mmHg 69%
14:00 +3°C° 0 mm 3 mps 743 mmHg 71%
15:00 +4°C° 0 mm 2 mps 743 mmHg 72%
16:00 +3°C° 0 mm 2 mps 742 mmHg 74%
17:00 +3°C° 0 mm 2 mps 742 mmHg 77%
18:00 +2°C° 0 mm 2 mps 742 mmHg 80%
19:00 +1°C° 0 mm 3 mps 742 mmHg 83%
20:00 +1°C° 0 mm 3 mps 741 mmHg 84%
21:00 +1°C° 0 mm 3 mps 741 mmHg 86%
22:00 0°C° 0 mm 3 mps 741 mmHg 88%
23:00 0°C° 0.1 mm 3 mps 740 mmHg 90%
Show more